Dewpoint
44 42 41 41 39 39 40 40 40 41 41 41 40 40 40 40 41 40 41 39 39 38
42 43 41 39 40 40 40 37 40 41 39 39 40 40 39 39 38 38 39 39 39 37
40 41 40 40 39 40 40 38 38 39 39 39 39 38 37 37 38 37 38 38 37 37
40 40 39 39 39 39 38 37 36 37 36 36 36 38 39 37 36 34 33 35 35 34
39 37 37 38 36 36 36 37 35 35 34 35 35 37 37 36 36 34 33 32 32 31
36 35 35 34 35 35 35 34 32 29 28 26 27 26 27 27 28 27 25 25 25 26
36 34 32 33 32 32 31 29 27 27 27 28 25 23 26 25 26 25 23 25 23 23
35 33 32 33 31 31 30 26 26 25 26 27 24 23 26 24 23 23 22 22 21 22
35 34 33 32 32 29 27 25 25 26 26 26 20 26 25 25 22 21 21 20 20 21
38 35 35 31 28 25 25 26 27 27 26 26 26 25 25 24 21 20 19 19 20 20
36 34 32 30 29 26 25 26 26 27 26 25 23 29 27 24 22 20 20 20 20 20
36 30 31 29 29 26 25 25 26 26 27 26 25 28 29 27 23 23 21 21 22 23
28 30 30 30 28 25 25 24 27 27 27 28 26 29 27 26 24 21 21 23 23 23
32 28 28 28 24 24 24 25 29 29 28 27 27 26 26 26 24 23 23 21 21 23
Lifted_Index
6 6 7 7 7 7 7 6 6 6 6 6 6 6 6 6 6 5 5 4 4 4
6 6 7 7 7 7 7 6 6 6 6 6 6 6 6 6 5 5 4 3 3 3
6 7 7 7 7 6 6 6 6 6 6 6 5 5 5 5 4 4 3 3 3 3
6 7 6 6 6 6 6 6 6 6 5 5 5 4 4 4 4 4 4 3 3 3
6 6 6 6 6 6 6 6 6 5 5 5 5 4 4 4 4 4 4 5 5 4
6 6 6 6 6 6 5 5 5 5 5 5 5 5 5 5 5 5 6 6 6 6
6 6 6 5 5 5 5 5 6 6 5 5 5 6 6 6 6 6 7 7 7 7
6 6 5 5 5 5 5 5 6 5 5 5 6 6 6 6 6 6 7 7 7 7
4 4 4 4 4 5 5 5 5 5 5 5 6 6 6 6 6 6 7 7 7 7
3 3 2 3 3 4 4 4 4 5 5 5 6 6 6 6 7 7 8 8 8 8
2 2 1 2 2 3 4 4 4 5 5 6 6 6 7 7 8 8 9 9 8 8
2 1 1 1 2 3 4 4 4 5 5 6 6 6 7 7 8 9 9 8 8 7
2 1 1 2 2 3 4 4 5 5 5 6 6 7 7 8 8 9 9 8 8 8
1 1 1 2 3 3 4 4 5 5 6 6 7 7 8 8 9 9 9 9 8 8